• In Österreich
  • Länderverzeichnis
  • Für 7 Tage
  • Wassertemperatur
  • Satellitenkarten
  • Wetterkarte
  • News
  • Widgets
  • user-avatar
    Anmelden

    Stündliche Wetter Chinsali

    Heute, 21 Juni, Donnerstag

    Zeit Temperatur Niederschläge Wind Luftdruck Luftfeuchtigkeit
    00:00 +14°C° 0 mm 3 m/S 649 mmHg 74%
    01:00 +14°C° 0 mm 2 m/S 649 mmHg 78%
    02:00 +14°C° 0 mm 2 m/S 648 mmHg 83%
    03:00 +13°C° 0 mm 2 m/S 648 mmHg 85%
    04:00 +13°C° 0 mm 2 m/S 648 mmHg 88%
    05:00 +12°C° 0 mm 2 m/S 648 mmHg 90%
    06:00 +14°C° 0 mm 2 m/S 649 mmHg 83%
    07:00 +16°C° 0 mm 2 m/S 650 mmHg 76%
    08:00 +18°C° 0 mm 3 m/S 651 mmHg 68%
    09:00 +20°C° 0 mm 3 m/S 651 mmHg 60%
    10:00 +22°C° 0 mm 3 m/S 651 mmHg 52%
    11:00 +25°C° 0 mm 3 m/S 652 mmHg 43%
    12:00 +26°C° 0 mm 3 m/S 651 mmHg 41%
    13:00 +27°C° 0 mm 3 m/S 651 mmHg 39%
    14:00 +27°C° 0 mm 2 m/S 651 mmHg 38%
    15:00 +26°C° 0 mm 2 m/S 650 mmHg 42%
    16:00 +25°C° 0 mm 2 m/S 650 mmHg 47%
    17:00 +24°C° 0 mm 2 m/S 649 mmHg 51%
    18:00 +23°C° 0 mm 2 m/S 650 mmHg 53%
    19:00 +21°C° 0 mm 2 m/S 650 mmHg 55%
    20:00 +20°C° 0 mm 2 m/S 650 mmHg 57%
    21:00 +19°C° 0 mm 2 m/S 650 mmHg 61%
    22:00 +18°C° 0 mm 2 m/S 650 mmHg 66%
    23:00 +17°C° 0 mm 3 m/S 650 mmHg 71%

    Morgen, 22 Juni, Freitag

    Zeit Temperatur Niederschläge Wind Luftdruck Luftfeuchtigkeit
    00:00 +16°C° 0 mm 2 m/S 649 mmHg 75%
    01:00 +15°C° 0 mm 2 m/S 649 mmHg 79%
    02:00 +15°C° 0 mm 2 m/S 649 mmHg 83%
    03:00 +14°C° 0 mm 2 m/S 649 mmHg 86%
    04:00 +14°C° 0 mm 2 m/S 649 mmHg 88%
    05:00 +14°C° 0 mm 2 m/S 649 mmHg 91%
    06:00 +15°C° 0 mm 2 m/S 649 mmHg 84%
    07:00 +17°C° 0 mm 3 m/S 650 mmHg 78%
    08:00 +18°C° 0 mm 3 m/S 651 mmHg 71%
    09:00 +20°C° 0 mm 3 m/S 651 mmHg 63%
    10:00 +22°C° 0 mm 3 m/S 651 mmHg 56%
    11:00 +25°C° 0 mm 4 m/S 652 mmHg 48%
    12:00 +26°C° 0 mm 3 m/S 651 mmHg 45%
    13:00 +27°C° 0 mm 3 m/S 651 mmHg 43%
    14:00 +27°C° 0 mm 3 m/S 650 mmHg 41%
    15:00 +26°C° 0 mm 3 m/S 650 mmHg 44%
    16:00 +25°C° 0 mm 2 m/S 649 mmHg 48%
    17:00 +24°C° 0 mm 2 m/S 649 mmHg 51%
    18:00 +23°C° 0 mm 2 m/S 649 mmHg 56%
    19:00 +20°C° 0 mm 2 m/S 649 mmHg 61%
    20:00 +18°C° 0 mm 2 m/S 648 mmHg 66%
    21:00 +17°C° 0 mm 2 m/S 649 mmHg 68%
    22:00 +17°C° 0 mm 2 m/S 649 mmHg 69%
    23:00 +16°C° 0 mm 2 m/S 649 mmHg 71%

    übermorgen, 23 Juni, Samstag

    Zeit Temperatur Niederschläge Wind Luftdruck Luftfeuchtigkeit
    00:00 +15°C° 0 mm 2 m/S 649 mmHg 75%
    01:00 +15°C° 0 mm 2 m/S 648 mmHg 78%
    02:00 +14°C° 0 mm 2 m/S 648 mmHg 81%
    03:00 +13°C° 0 mm 2 m/S 648 mmHg 83%
    04:00 +13°C° 0 mm 2 m/S 648 mmHg 85%
    05:00 +13°C° 0 mm 2 m/S 648 mmHg 87%
    06:00 +14°C° 0 mm 2 m/S 649 mmHg 79%
    07:00 +16°C° 0 mm 3 m/S 649 mmHg 72%
    08:00 +18°C° 0 mm 3 m/S 650 mmHg 65%
    09:00 +20°C° 0 mm 3 m/S 650 mmHg 59%
    10:00 +22°C° 0 mm 3 m/S 651 mmHg 52%
    11:00 +25°C° 0 mm 4 m/S 651 mmHg 45%
    12:00 +26°C° 0 mm 3 m/S 650 mmHg 43%
    13:00 +26°C° 0 mm 3 m/S 650 mmHg 41%
    14:00 +27°C° 0 mm 3 m/S 649 mmHg 39%
    15:00 +26°C° 0 mm 3 m/S 649 mmHg 42%
    16:00 +25°C° 0 mm 2 m/S 648 mmHg 46%
    17:00 +24°C° 0 mm 2 m/S 648 mmHg 50%
    18:00 +21°C° 0 mm 2 m/S 648 mmHg 55%
    19:00 +19°C° 0 mm 2 m/S 648 mmHg 60%
    20:00 +17°C° 0 mm 2 m/S 648 mmHg 65%
    21:00 +17°C° 0 mm 2 m/S 648 mmHg 67%
    22:00 +16°C° 0 mm 2 m/S 648 mmHg 69%
    23:00 +16°C° 0 mm 2 m/S 648 mmHg 70%

    24 Juni, Sonntag

    Zeit Temperatur Niederschläge Wind Luftdruck Luftfeuchtigkeit
    00:00 +15°C° 0 mm 2 m/S 648 mmHg 73%
    01:00 +14°C° 0 mm 2 m/S 647 mmHg 76%
    02:00 +14°C° 0 mm 1 m/S 647 mmHg 79%
    03:00 +13°C° 0 mm 1 m/S 647 mmHg 81%
    04:00 +13°C° 0 mm 2 m/S 647 mmHg 82%
    05:00 +12°C° 0 mm 2 m/S 647 mmHg 83%
    06:00 +14°C° 0 mm 2 m/S 648 mmHg 77%
    07:00 +16°C° 0 mm 2 m/S 649 mmHg 70%
    08:00 +18°C° 0 mm 3 m/S 650 mmHg 64%
    09:00 +20°C° 0 mm 3 m/S 650 mmHg 56%
    10:00 +22°C° 0 mm 3 m/S 650 mmHg 49%
    11:00 +25°C° 0 mm 3 m/S 651 mmHg 42%
    12:00 +26°C° 0 mm 3 m/S 650 mmHg 40%
    13:00 +26°C° 0 mm 3 m/S 650 mmHg 39%
    14:00 +27°C° 0 mm 3 m/S 649 mmHg 37%
    15:00 +26°C° 0 mm 2 m/S 649 mmHg 41%
    16:00 +25°C° 0 mm 2 m/S 648 mmHg 45%
    17:00 +24°C° 0 mm 2 m/S 648 mmHg 49%
    18:00 +21°C° 0 mm 2 m/S 648 mmHg 53%
    19:00 +20°C° 0 mm 2 m/S 648 mmHg 57%
    20:00 +18°C° 0 mm 2 m/S 648 mmHg 60%
    21:00 +17°C° 0 mm 2 m/S 648 mmHg 61%
    22:00 +17°C° 0 mm 2 m/S 648 mmHg 62%
    23:00 +16°C° 0 mm 3 m/S 648 mmHg 63%

    25 Juni, Montag

    Zeit Temperatur Niederschläge Wind Luftdruck Luftfeuchtigkeit
    00:00 +16°C° 0 mm 2 m/S 648 mmHg 65%
    01:00 +15°C° 0 mm 2 m/S 647 mmHg 67%
    02:00 +15°C° 0 mm 2 m/S 647 mmHg 69%
    03:00 +14°C° 0 mm 2 m/S 647 mmHg 70%
    04:00 +14°C° 0 mm 2 m/S 647 mmHg 72%
    05:00 +13°C° 0 mm 2 m/S 647 mmHg 74%
    06:00 +14°C° 0 mm 3 m/S 648 mmHg 70%
    07:00 +16°C° 0 mm 3 m/S 649 mmHg 66%
    08:00 +18°C° 0 mm 3 m/S 650 mmHg 62%
    09:00 +20°C° 0 mm 3 m/S 650 mmHg 55%
    10:00 +22°C° 0 mm 4 m/S 650 mmHg 49%
    11:00 +25°C° 0 mm 4 m/S 650 mmHg 42%
    12:00 +25°C° 0 mm 3 m/S 650 mmHg 40%
    13:00 +26°C° 0 mm 3 m/S 649 mmHg 38%
    14:00 +27°C° 0 mm 3 m/S 649 mmHg 36%
    15:00 +26°C° 0 mm 2 m/S 648 mmHg 39%
    16:00 +25°C° 0 mm 2 m/S 648 mmHg 43%
    17:00 +24°C° 0 mm 2 m/S 648 mmHg 47%
    18:00 +21°C° 0 mm 2 m/S 648 mmHg 50%
    19:00 +20°C° 0 mm 2 m/S 648 mmHg 54%
    20:00 +18°C° 0 mm 2 m/S 648 mmHg 58%
    21:00 +17°C° 0 mm 2 m/S 648 mmHg 60%
    22:00 +17°C° 0 mm 2 m/S 648 mmHg 61%
    23:00 +16°C° 0 mm 3 m/S 648 mmHg 63%

    26 Juni, Dienstag

    Zeit Temperatur Niederschläge Wind Luftdruck Luftfeuchtigkeit
    00:00 +16°C° 0 mm 3 m/S 648 mmHg 64%
    01:00 +15°C° 0 mm 2 m/S 647 mmHg 65%
    02:00 +14°C° 0 mm 2 m/S 647 mmHg 67%
    03:00 +14°C° 0 mm 2 m/S 647 mmHg 69%
    04:00 +14°C° 0 mm 2 m/S 647 mmHg 71%
    05:00 +13°C° 0 mm 2 m/S 647 mmHg 72%
    06:00 +14°C° 0 mm 3 m/S 648 mmHg 69%
    07:00 +16°C° 0 mm 3 m/S 649 mmHg 65%
    08:00 +17°C° 0 mm 3 m/S 650 mmHg 62%
    09:00 +19°C° 0 mm 4 m/S 650 mmHg 55%
    10:00 +21°C° 0 mm 4 m/S 650 mmHg 49%
    11:00 +25°C° 0 mm 4 m/S 651 mmHg 42%
    12:00 +25°C° 0 mm 4 m/S 650 mmHg 40%
    13:00 +26°C° 0 mm 3 m/S 649 mmHg 38%
    14:00 +27°C° 0 mm 3 m/S 649 mmHg 35%
    15:00 +26°C° 0 mm 3 m/S 649 mmHg 39%
    16:00 +25°C° 0 mm 2 m/S 648 mmHg 42%
    17:00 +24°C° 0 mm 2 m/S 648 mmHg 45%
    18:00 +23°C° 0 mm 2 m/S 648 mmHg 48%
    19:00 +21°C° 0 mm 2 m/S 649 mmHg 51%
    20:00 +19°C° 0 mm 3 m/S 649 mmHg 54%
    21:00 +18°C° 0 mm 3 m/S 649 mmHg 58%
    22:00 +17°C° 0 mm 3 m/S 649 mmHg 62%
    23:00 +16°C° 0 mm 3 m/S 649 mmHg 66%
    Mehr zeigen